This is the latest recevied weather packets stored in our database for station/object DG9MHV-10. If no packets are shown the sender has not sent any weather packets the latest 10 day(s).
| Time | Temp. | Humidity | Pressure | Rain* | Wind** | Luminosity | Snow |
|---|---|---|---|---|---|---|---|
| 1777758067 | 12.22° C | 100% | 1017.2 hPa | - | - | - | - |
| 1777757167 | 12.22° C | 100% | 1017.2 hPa | - | - | - | - |
| 1777756267 | 12.78° C | 100% | 1017.4 hPa | - | - | - | - |
| 1777755367 | 13.33° C | 100% | 1017.5 hPa | - | - | - | - |
| 1777754467 | 13.89° C | 100% | 1017.8 hPa | - | - | - | - |
| 1777753567 | 14.44° C | 100% | 1017.7 hPa | - | - | - | - |
| 1777752666 | 15° C | 100% | 1017.6 hPa | - | - | - | - |
| 1777751766 | 15° C | 100% | 1017.9 hPa | - | - | - | - |
| 1777750866 | 15.56° C | 100% | 1017.9 hPa | - | - | - | - |
| 1777749966 | 16.11° C | 100% | 1017.7 hPa | - | - | - | - |
| 1777749066 | 16.67° C | 100% | 1017.7 hPa | - | - | - | - |
| 1777748166 | 17.22° C | 100% | 1017.6 hPa | - | - | - | - |
| 1777747266 | 17.78° C | 100% | 1017.5 hPa | - | - | - | - |
| 1777746366 | 18.89° C | 100% | 1017.5 hPa | - | - | - | - |
| 1777745466 | 20° C | 100% | 1017.3 hPa | - | - | - | - |
| 1777744566 | 20.56° C | 97% | 1017.3 hPa | - | - | - | - |
| 1777743666 | 21.67° C | 75% | 1017.5 hPa | - | - | - | - |
| 1777742766 | 22.22° C | 69% | 1017.5 hPa | - | - | - | - |
| 1777741865 | 22.22° C | 67% | 1017.5 hPa | - | - | - | - |
| 1777740965 | 22.78° C | 66% | 1017.5 hPa | - | - | - | - |
| 1777740065 | 23.33° C | 64% | 1017.6 hPa | - | - | - | - |
| 1777739165 | 23.33° C | 58% | 1017.8 hPa | - | - | - | - |
| 1777737375 | 23.89° C | 59% | 1018.1 hPa | - | - | - | - |
| 1777736475 | 24.44° C | 55% | 1018.3 hPa | - | - | - | - |
| 1777735575 | 24.44° C | 51% | 1018.4 hPa | - | - | - | - |
* Rain since midnight (hover to see other rain measurements)
** Current wind speed in m/s (hover to see current wind gust speed)